Weather in Voloshnivka

Ukraine / Sumi District     50°36′03″N   33°10′52″E
temp.,
°C
wind,
m/s
gust,
m/s
humid.,
%
clouds,
%
prec.,
mm/h
press.,
hPa
HPBL,
m
27 october, wed
wed2700:00+3ssw4116411 0.0 1028221
03:00+2ssw411675 0.0 1027227
06:00+2ssw512760 0.0 1026270
09:00+3ssw512770 0.0 1025375
12:00+8sw6106923 0.0 1024716
15:00+10wsw67604 0.0 1023987
18:00+8w3568100 0.0 102391
21:00+8w356277 0.0 1024135
28 october, thu
thu2800:00+5wnw337899 0.0 102444
03:00+5wsw3587100 0.0 102490
06:00+5wsw4989100 0.0 1023176
09:00+7sw51180100 0.0 1022336
12:00+11w71069100 0.0 1021590
15:00+11wnw51073100 0.0 1021644
18:00+10wnw498286 0.1 1022443
21:00+9nw4108872 0.1 1023360
29 october, fri
fri2900:00+8nw369215 0.0 1024148
03:00+7n35965 0.0 1026111
06:00+5nne34955 0.0 102784
09:00+6ne25855 0.0 1028143
12:00+10ene34590 0.0 1029579
15:00+12e23520 0.0 1029869
18:00+9e22670 0.0 102921
21:00+7ese34780 0.0 103061
30 october, sat
sat3000:00+6se35880 0.0 103181
03:00+5se35910 0.0 103178
06:00+4se35925 0.0 103268
09:00+5sse36860 0.0 1032165
12:00+11sse45610 0.0 1032499
15:00+13sse45540 0.0 1031828
18:00+9sse33690 0.0 103137
21:00+7sse34720 0.0 103156
31 october, sun
sun3100:00+6sse34730 0.0 103258
03:00+5sse34760 0.0 103244
05:00+4se34780 0.0 103145
08:00+5se36790 0.0 1031155
11:00+11sse57610 0.0 1030550
14:00+13se45500 0.0 1027808
17:00+9ese35630 0.0 102776
20:00+7ese49700 0.0 1026161